Location: Boulin
(43.2500°N, 0.1333°E)
Time: 00:54:47
(UTC+00:00)

Okean 1 - Pass Details

Date: 11 December 2025
Orbit: 465 x 484 km, 82.5° (Epoch: 19 January)

Event Time Altitude Azimuth Distance (km) Brightness Sun altitude
Rises 18:25:55 0° 186° (S) 2,529 6.9 -21.4°
Reaches altitude 10° 18:28:01 10° 185° (S) 1,651 5.9 -21.7°
Enters shadow 18:30:46 51° 181° (S) 611 3.5 -22.2°
